This is the latest recevied weather packets stored in our database for station/object N4HAC. If no packets are shown the sender has not sent any weather packets the latest 10 day(s).
| Time | Temp. | Humidity | Pressure | Rain* | Wind** | Luminosity | Snow |
|---|---|---|---|---|---|---|---|
| 1778012530 | 27.22° C | 33% | 1003.8 hPa | 0 mm | - | 361 W/m² | - |
| 1778012227 | 27.22° C | 33% | 1003.6 hPa | 0 mm | - | 337 W/m² | - |
| 1778011925 | 27.22° C | 33% | 1003.6 hPa | 0 mm | - | 370 W/m² | - |
| 1778011623 | 27.22° C | 32% | 1003.8 hPa | 0 mm | - | 430 W/m² | - |
| 1778011319 | 27.22° C | 33% | 1003.9 hPa | 0 mm | - | 427 W/m² | - |
| 1778011015 | 27.22° C | 33% | 1003.8 hPa | 0 mm | - | 398 W/m² | - |
| 1778010712 | 27.78° C | 32% | 1003.6 hPa | 0 mm | - | 447 W/m² | - |
| 1778010410 | 27.22° C | 33% | 1003.7 hPa | 0 mm | - | 482 W/m² | - |
| 1778010105 | 27.22° C | 33% | 1003.6 hPa | 0 mm | - | 452 W/m² | - |
| 1778009802 | 27.22° C | 36% | 1004 hPa | 0 mm | - | 493 W/m² | - |
| 1778009499 | 27.22° C | 36% | 1003.9 hPa | 0 mm | - | 537 W/m² | - |
| 1778009198 | 27.22° C | 36% | 1003.8 hPa | 0 mm | - | 569 W/m² | - |
| 1778008895 | 27.22° C | 37% | 1003.9 hPa | 0 mm | - | 528 W/m² | - |
| 1778008593 | 27.22° C | 37% | 1004.1 hPa | 0 mm | - | 613 W/m² | - |
| 1778008291 | 27.22° C | 35% | 1004 hPa | 0 mm | - | 634 W/m² | - |
| 1778007987 | 27.22° C | 38% | 1004 hPa | 0 mm | - | 719 W/m² | - |
| 1778007682 | 26.67° C | 38% | 1004.2 hPa | 0 mm | - | 716 W/m² | - |
| 1778007379 | 27.22° C | 37% | 1004.3 hPa | 0 mm | - | 758 W/m² | - |
| 1778007075 | 27.78° C | 38% | 1004.4 hPa | 0 mm | - | 766 W/m² | - |
| 1778006772 | 27.22° C | 40% | 1004.5 hPa | 0 mm | - | 696 W/m² | - |
| 1778006469 | 26.67° C | 39% | 1004.4 hPa | 0 mm | - | 715 W/m² | - |
| 1778006165 | 26.67° C | 39% | 1004.7 hPa | 0 mm | - | 734 W/m² | - |
| 1778005863 | 27.22° C | 39% | 1004.8 hPa | 0 mm | - | 749 W/m² | - |
| 1778005559 | 27.78° C | 40% | 1004.7 hPa | 0 mm | - | 767 W/m² | - |
| 1778005256 | 27.22° C | 34% | 1005.1 hPa | 0 mm | - | 810 W/m² | - |
* Rain latest hour (hover to see other rain measurements)
** Current wind speed in m/s (hover to see current wind gust speed)